QPF
0.01 0.01 0.00 0.00 0.01 0.01 0.02 0.02 0.02 0.03 0.03 0.04 0.04 0.04 0.03 0.02 0.02 0.01 0.01 0.04 0.05 0.09 0.12 0.11 0.07 0.07 0.07 0.05 0.04 0.03 0.03 0.05 0.04 0.03 0.04 0.04 0.04 0.03 0.03 0.03 0.03 0.04 0.04
0.00 0.00 0.00 0.00 0.01 0.02 0.02 0.02 0.03 0.03 0.04 0.03 0.03 0.02 0.02 0.02 0.01 0.01 0.00 0.02 0.04 0.07 0.10 0.10 0.08 0.06 0.05 0.05 0.05 0.04 0.03 0.04 0.04 0.03 0.03 0.03 0.04 0.04 0.03 0.03 0.03 0.04 0.04
0.00 0.00 0.00 0.00 0.01 0.01 0.02 0.02 0.03 0.03 0.03 0.03 0.02 0.02 0.02 0.01 0.01 0.01 0.01 0.01 0.02 0.05 0.10 0.10 0.07 0.05 0.04 0.04 0.08 0.06 0.04 0.03 0.04 0.04 0.03 0.03 0.03 0.03 0.03 0.03 0.04 0.04 0.05
0.01 0.01 0.00 0.00 0.00 0.00 0.01 0.02 0.03 0.02 0.03 0.03 0.03 0.02 0.01 0.01 0.01 0.02 0.02 0.01 0.01 0.03 0.08 0.08 0.05 0.03 0.03 0.04 0.05 0.06 0.05 0.04 0.03 0.03 0.04 0.04 0.04 0.03 0.02 0.02 0.03 0.04 0.04
0.02 0.02 0.01 0.01 0.01 0.01 0.01 0.02 0.03 0.01 0.01 0.01 0.02 0.02 0.01 0.01 0.02 0.02 0.03 0.02 0.01 0.02 0.03 0.03 0.02 0.02 0.03 0.05 0.04 0.05 0.05 0.05 0.03 0.03 0.04 0.03 0.03 0.04 0.03 0.02 0.02 0.02 0.02
0.02 0.01 0.01 0.02 0.02 0.02 0.01 0.01 0.01 0.01 0.00 0.01 0.01 0.01 0.01 0.01 0.03 0.05 0.03 0.02 0.02 0.03 0.02 0.02 0.02 0.02 0.04 0.04 0.04 0.05 0.05 0.05 0.03 0.02 0.03 0.03 0.02 0.04 0.03 0.02 0.02 0.02 0.02
0.01 0.02 0.01 0.01 0.03 0.03 0.01 0.01 0.00 0.00 0.00 0.01 0.01 0.01 0.02 0.03 0.06 0.10 0.05 0.03 0.04 0.04 0.05 0.04 0.02 0.01 0.02 0.03 0.04 0.06 0.07 0.05 0.04 0.04 0.04 0.03 0.03 0.03 0.02 0.02 0.02 0.02 0.01
0.01 0.01 0.01 0.01 0.02 0.03 0.02 0.01 0.00 0.01 0.00 0.01 0.01 0.02 0.03 0.04 0.06 0.09 0.06 0.06 0.06 0.05 0.09 0.11 0.06 0.02 0.02 0.02 0.04 0.04 0.04 0.04 0.05 0.04 0.06 0.05 0.04 0.04 0.03 0.03 0.02 0.02 0.01
0.01 0.01 0.01 0.01 0.02 0.02 0.02 0.01 0.00 0.00 0.01 0.01 0.02 0.03 0.03 0.04 0.06 0.08 0.07 0.08 0.07 0.08 0.13 0.15 0.10 0.03 0.02 0.02 0.02 0.03 0.03 0.03 0.05 0.05 0.06 0.05 0.04 0.05 0.05 0.04 0.03 0.03 0.02
0.01 0.01 0.01 0.01 0.01 0.02 0.01 0.01 0.00 0.00 0.01 0.01 0.02 0.02 0.02 0.02 0.02 0.05 0.05 0.05 0.06 0.07 0.10 0.12 0.08 0.04 0.03 0.02 0.02 0.03 0.03 0.05 0.06 0.05 0.06 0.05 0.04 0.04 0.04 0.03 0.02 0.02 0.02
0.01 0.01 0.01 0.01 0.01 0.01 0.02 0.01 0.02 0.01 0.01 0.01 0.01 0.01 0.01 0.01 0.01 0.02 0.04 0.04 0.04 0.04 0.05 0.05 0.04 0.04 0.03 0.03 0.03 0.03 0.04 0.04 0.04 0.04 0.04 0.04 0.05 0.05 0.04 0.03 0.02 0.03 0.02
0.01 0.02 0.02 0.01 0.01 0.01 0.01 0.02 0.02 0.02 0.01 0.00 0.00 0.01 0.01 0.00 0.01 0.01 0.02 0.02 0.02 0.03 0.02 0.02 0.02 0.03 0.03 0.02 0.03 0.04 0.05 0.04 0.04 0.03 0.03 0.03 0.04 0.05 0.05 0.03 0.04 0.03 0.03
0.01 0.01 0.01 0.01 0.00 0.01 0.01 0.02 0.02 0.02 0.01 0.01 0.00 0.00 0.00 0.00 0.01 0.01 0.01 0.01 0.02 0.02 0.02 0.01 0.01 0.01 0.01 0.01 0.01 0.01 0.01 0.02 0.02 0.03 0.03 0.04 0.05 0.06 0.04 0.02 0.05 0.03 0.02
0.01 0.02 0.01 0.01 0.01 0.01 0.01 0.01 0.02 0.02 0.01 0.01 0.01 0.01 0.01 0.01 0.01 0.01 0.01 0.01 0.01 0.02 0.01 0.01 0.01 0.01 0.01 0.01 0.01 0.00 0.01 0.02 0.02 0.03 0.04 0.06 0.07 0.06 0.03 0.01 0.01 0.01 0.01
0.01 0.01 0.01 0.01 0.01 0.01 0.01 0.01 0.01 0.01 0.01 0.00 0.00 0.01 0.01 0.01 0.00 0.01 0.01 0.01 0.01 0.02 0.01 0.01 0.01 0.01 0.01 0.02 0.03 0.01 0.02 0.03 0.03 0.05 0.06 0.07 0.06 0.05 0.02 0.01 0.00 0.00 0.01
0.02 0.01 0.01 0.01 0.01 0.01 0.01 0.01 0.01 0.01 0.00 0.00 0.00 0.01 0.01 0.00 0.00 0.00 0.00 0.00 0.00 0.01 0.01 0.00 0.00 0.00 0.01 0.01 0.03 0.02 0.01 0.02 0.04 0.08 0.07 0.05 0.03 0.02 0.01 0.00 0.00 0.00 0.00
0.03 0.02 0.01 0.00 0.00 0.01 0.02 0.02 0.02 0.02 0.01 0.00 0.00 0.00 0.00 0.00 0.00 0.00 0.00 0.00 0.00 0.00 0.01 0.00 0.00 0.01 0.01 0.01 0.02 0.01 0.01 0.02 0.04 0.08 0.06 0.03 0.01 0.00 0.00 0.00 0.00 0.00 0.00
0.01 0.01 0.02 0.01 0.01 0.01 0.02 0.02 0.01 0.01 0.01 0.01 0.01 0.01 0.01 0.00 0.00 0.00 0.00 0.00 0.00 0.00 0.00 0.00 0.01 0.01 0.02 0.01 0.00 0.01 0.03 0.05 0.05 0.05 0.03 0.01 0.00 0.00 0.00 0.00 0.00 0.00 0.00
0.01 0.01 0.01 0.01 0.01 0.02 0.02 0.02 0.01 0.01 0.01 0.01 0.01 0.01 0.00 0.00 0.00 0.00 0.00 0.00 0.00 0.00 0.00 0.00 0.00 0.01 0.02 0.01 0.01 0.00 0.01 0.04 0.05 0.04 0.03 0.01 0.01 0.00 0.00 0.00 0.00 0.00 0.00
0.01 0.01 0.01 0.01 0.01 0.01 0.01 0.01 0.01 0.02 0.02 0.01 0.01 0.01 0.00 0.00 0.00 0.00 0.00 0.01 0.00 0.00 0.00 0.00 0.00 0.00 0.00 0.00 0.01 0.00 0.00 0.01 0.01 0.02 0.03 0.01 0.01 0.01 0.00 0.00 0.00 0.00 0.00
0.01 0.01 0.00 0.01 0.00 0.01 0.01 0.01 0.01 0.01 0.02 0.01 0.01 0.00 0.01 0.01 0.01 0.01 0.00 0.01 0.01 0.01 0.00 0.00 0.00 0.00 0.00 0.00 0.00 0.00 0.00 0.00 0.00 0.01 0.01 0.01 0.01 0.01 0.01 0.01 0.01 0.00 0.00
0.02 0.01 0.01 0.01 0.00 0.00 0.00 0.00 0.01 0.01 0.01 0.01 0.01 0.01 0.01 0.01 0.00 0.00 0.00 0.00 0.00 0.00 0.00 0.00 0.00 0.00 0.00 0.00 0.00 0.00 0.00 0.00 0.00 0.00 0.00 0.00 0.00 0.00 0.01 0.01 0.01 0.00 0.00
0.01 0.01 0.01 0.01 0.00 0.00 0.00 0.00 0.01 0.01 0.01 0.00 0.00 0.00 0.00 0.00 0.00 0.00 0.00 0.00 0.00 0.00 0.00 0.00 0.00 0.00 0.00 0.00 0.00 0.00 0.00 0.00 0.00 0.01 0.01 0.01 0.01 0.01 0.01 0.01 0.00 0.00 0.00
0.01 0.01 0.01 0.01 0.00 0.00 0.00 0.01 0.01 0.00 0.00 0.00 0.00 0.00 0.00 0.00 0.00 0.00 0.00 0.00 0.00 0.00 0.00 0.00 0.00 0.00 0.00 0.00 0.01 0.01 0.01 0.01 0.01 0.01 0.02 0.01 0.01 0.01 0.01 0.01 0.01 0.00 0.00
0.01 0.01 0.01 0.01 0.00 0.01 0.01 0.01 0.01 0.00 0.00 0.00 0.00 0.00 0.00 0.00 0.00 0.00 0.00 0.00 0.00 0.00 0.00 0.00 0.00 0.00 0.00 0.00 0.01 0.01 0.01 0.01 0.01 0.01 0.01 0.01 0.01 0.01 0.01 0.00 0.00 0.00 0.00
0.01 0.01 0.01 0.01 0.01 0.02 0.03 0.02 0.01 0.00 0.00 0.00 0.00 0.00 0.00 0.00 0.00 0.00 0.00 0.00 0.00 0.00 0.00 0.00 0.00 0.00 0.00 0.00 0.01 0.01 0.02 0.02 0.01 0.01 0.00 0.01 0.01 0.01 0.01 0.00 0.00 0.00 0.00
MSLP
1017.99 1018.16 1018.26 1018.32 1018.37 1018.46 1018.61 1018.83 1019.11 1019.43 1019.73 1020.01 1020.23 1020.38 1020.48 1020.54 1020.58 1020.60 1020.62 1020.64 1020.63 1020.61 1020.55 1020.46 1020.35 1020.23 1020.11 1020.01 1019.93 1019.87 1019.81 1019.74 1019.65 1019.53 1019.37 1019.18 1018.95 1018.70 1018.42 1018.12 1017.79 1017.43 1017.04
1018.16 1018.34 1018.47 1018.58 1018.69 1018.84 1019.05 1019.32 1019.64 1019.99 1020.32 1020.60 1020.84 1021.00 1021.12 1021.18 1021.22 1021.25 1021.27 1021.28 1021.28 1021.25 1021.18 1021.09 1020.97 1020.84 1020.71 1020.59 1020.49 1020.41 1020.33 1020.26 1020.18 1020.07 1019.94 1019.77 1019.58 1019.36 1019.12 1018.84 1018.54 1018.21 1017.85
1018.26 1018.44 1018.61 1018.77 1018.95 1019.18 1019.46 1019.80 1020.16 1020.54 1020.89 1021.20 1021.44 1021.61 1021.73 1021.81 1021.86 1021.88 1021.90 1021.91 1021.90 1021.86 1021.80 1021.70 1021.57 1021.43 1021.29 1021.16 1021.04 1020.93 1020.84 1020.76 1020.68 1020.58 1020.45 1020.31 1020.14 1019.94 1019.72 1019.47 1019.19 1018.88 1018.55
1018.33 1018.50 1018.69 1018.90 1019.16 1019.46 1019.82 1020.21 1020.62 1021.03 1021.41 1021.73 1021.98 1022.17 1022.30 1022.39 1022.45 1022.48 1022.51 1022.51 1022.50 1022.46 1022.39 1022.29 1022.16 1022.01 1021.86 1021.72 1021.58 1021.46 1021.36 1021.26 1021.17 1021.07 1020.95 1020.81 1020.65 1020.46 1020.24 1019.99 1019.72 1019.43 1019.12
1018.40 1018.56 1018.76 1019.01 1019.32 1019.68 1020.09 1020.53 1020.98 1021.41 1021.80 1022.14 1022.41 1022.62 1022.78 1022.89 1022.97 1023.03 1023.07 1023.08 1023.08 1023.04 1022.97 1022.87 1022.74 1022.60 1022.44 1022.29 1022.15 1022.02 1021.90 1021.79 1021.69 1021.58 1021.45 1021.31 1021.14 1020.94 1020.72 1020.46 1020.19 1019.89 1019.60
1018.53 1018.66 1018.85 1019.12 1019.46 1019.85 1020.29 1020.75 1021.20 1021.64 1022.04 1022.38 1022.68 1022.92 1023.12 1023.28 1023.41 1023.51 1023.58 1023.62 1023.63 1023.61 1023.55 1023.46 1023.34 1023.20 1023.05 1022.89 1022.75 1022.61 1022.48 1022.36 1022.24 1022.12 1021.99 1021.83 1021.65 1021.44 1021.19 1020.92 1020.63 1020.32 1020.02
1018.73 1018.82 1019.00 1019.26 1019.59 1019.98 1020.41 1020.85 1021.29 1021.71 1022.10 1022.45 1022.77 1023.05 1023.31 1023.53 1023.73 1023.89 1024.02 1024.11 1024.16 1024.16 1024.12 1024.05 1023.94 1023.81 1023.67 1023.52 1023.37 1023.22 1023.09 1022.96 1022.83 1022.70 1022.55 1022.38 1022.19 1021.96 1021.69 1021.40 1021.09 1020.77 1020.45
1019.02 1019.08 1019.22 1019.46 1019.76 1020.11 1020.49 1020.89 1021.28 1021.66 1022.02 1022.37 1022.71 1023.04 1023.35 1023.65 1023.93 1024.17 1024.37 1024.52 1024.62 1024.66 1024.66 1024.61 1024.53 1024.41 1024.28 1024.13 1023.99 1023.84 1023.70 1023.56 1023.42 1023.27 1023.12 1022.94 1022.74 1022.50 1022.23 1021.92 1021.59 1021.25 1020.92
1019.39 1019.42 1019.54 1019.73 1019.99 1020.28 1020.60 1020.91 1021.23 1021.55 1021.87 1022.20 1022.54 1022.91 1023.28 1023.65 1024.01 1024.33 1024.61 1024.83 1024.98 1025.08 1025.12 1025.10 1025.04 1024.95 1024.84 1024.70 1024.56 1024.41 1024.26 1024.10 1023.95 1023.80 1023.64 1023.46 1023.25 1023.02 1022.75 1022.44 1022.11 1021.76 1021.41
1019.83 1019.85 1019.94 1020.10 1020.30 1020.53 1020.76 1021.00 1021.23 1021.47 1021.73 1022.03 1022.36 1022.74 1023.14 1023.57 1023.98 1024.37 1024.71 1025.00 1025.21 1025.36 1025.44 1025.47 1025.45 1025.39 1025.29 1025.17 1025.03 1024.87 1024.71 1024.54 1024.38 1024.22 1024.05 1023.87 1023.68 1023.45 1023.20 1022.91 1022.59 1022.25 1021.90
1020.30 1020.32 1020.40 1020.54 1020.70 1020.88 1021.04 1021.19 1021.34 1021.51 1021.70 1021.94 1022.24 1022.60 1023.01 1023.45 1023.89 1024.32 1024.70 1025.03 1025.29 1025.48 1025.61 1025.69 1025.71 1025.68 1025.60 1025.50 1025.36 1025.20 1025.02 1024.84 1024.66 1024.48 1024.31 1024.14 1023.96 1023.76 1023.53 1023.27 1022.98 1022.66 1022.32
1020.75 1020.80 1020.90 1021.03 1021.18 1021.31 1021.43 1021.53 1021.61 1021.70 1021.83 1022.01 1022.25 1022.57 1022.94 1023.36 1023.79 1024.21 1024.60 1024.94 1025.23 1025.46 1025.63 1025.75 1025.81 1025.82 1025.78 1025.68 1025.55 1025.38 1025.19 1024.98 1024.78 1024.59 1024.41 1024.24 1024.07 1023.89 1023.70 1023.48 1023.22 1022.93 1022.62
1021.14 1021.23 1021.37 1021.53 1021.68 1021.82 1021.92 1021.98 1022.02 1022.06 1022.13 1022.25 1022.43 1022.67 1022.98 1023.33 1023.71 1024.09 1024.45 1024.78 1025.08 1025.33 1025.54 1025.70 1025.80 1025.85 1025.84 1025.76 1025.63 1025.45 1025.24 1025.01 1024.78 1024.56 1024.37 1024.19 1024.03 1023.88 1023.71 1023.53 1023.32 1023.07 1022.80
1021.45 1021.60 1021.78 1021.98 1022.17 1022.33 1022.44 1022.51 1022.54 1022.56 1022.59 1022.65 1022.77 1022.93 1023.15 1023.42 1023.71 1024.02 1024.33 1024.63 1024.91 1025.17 1025.40 1025.60 1025.74 1025.83 1025.84 1025.79 1025.66 1025.48 1025.24 1024.99 1024.72 1024.48 1024.26 1024.07 1023.91 1023.76 1023.62 1023.47 1023.29 1023.08 1022.85
1021.67 1021.88 1022.11 1022.36 1022.60 1022.80 1022.95 1023.05 1023.11 1023.13 1023.15 1023.18 1023.24 1023.33 1023.46 1023.63 1023.83 1024.05 1024.29 1024.54 1024.80 1025.05 1025.30 1025.52 1025.70 1025.82 1025.87 1025.83 1025.71 1025.52 1025.27 1024.98 1024.69 1024.41 1024.16 1023.96 1023.78 1023.63 1023.50 1023.36 1023.20 1023.03 1022.82
1021.83 1022.07 1022.35 1022.64 1022.93 1023.18 1023.39 1023.54 1023.64 1023.70 1023.73 1023.76 1023.78 1023.82 1023.88 1023.96 1024.07 1024.21 1024.38 1024.58 1024.81 1025.05 1025.31 1025.55 1025.76 1025.90 1025.97 1025.95 1025.83 1025.63 1025.36 1025.06 1024.74 1024.43 1024.16 1023.92 1023.73 1023.57 1023.42 1023.28 1023.13 1022.96 1022.77
1021.94 1022.21 1022.52 1022.84 1023.16 1023.46 1023.72 1023.93 1024.08 1024.20 1024.27 1024.31 1024.33 1024.35 1024.37 1024.39 1024.44 1024.51 1024.62 1024.78 1024.97 1025.21 1025.46 1025.71 1025.93 1026.10 1026.18 1026.16 1026.05 1025.85 1025.57 1025.25 1024.91 1024.58 1024.29 1024.03 1023.81 1023.62 1023.45 1023.29 1023.13 1022.95 1022.75
1022.06 1022.35 1022.66 1022.99 1023.32 1023.64 1023.94 1024.20 1024.41 1024.58 1024.70 1024.79 1024.84 1024.86 1024.87 1024.87 1024.88 1024.91 1024.98 1025.11 1025.28 1025.49 1025.74 1025.99 1026.21 1026.38 1026.47 1026.46 1026.35 1026.15 1025.87 1025.55 1025.20 1024.87 1024.55 1024.28 1024.03 1023.82 1023.62 1023.42 1023.21 1023.00 1022.77
1022.23 1022.51 1022.81 1023.13 1023.45 1023.77 1024.08 1024.36 1024.62 1024.84 1025.02 1025.15 1025.25 1025.30 1025.33 1025.33 1025.34 1025.36 1025.41 1025.51 1025.66 1025.86 1026.09 1026.33 1026.54 1026.71 1026.79 1026.78 1026.68 1026.48 1026.21 1025.90 1025.56 1025.23 1024.92 1024.63 1024.37 1024.12 1023.88 1023.63 1023.37 1023.11 1022.83
1022.45 1022.73 1023.01 1023.29 1023.58 1023.87 1024.16 1024.45 1024.73 1024.99 1025.22 1025.41 1025.55 1025.65 1025.71 1025.74 1025.76 1025.78 1025.83 1025.92 1026.05 1026.23 1026.44 1026.65 1026.85 1027.00 1027.08 1027.07 1026.97 1026.79 1026.54 1026.25 1025.94 1025.62 1025.32 1025.03 1024.75 1024.48 1024.20 1023.90 1023.58 1023.25 1022.91
1022.72 1022.99 1023.24 1023.49 1023.73 1023.98 1024.24 1024.52 1024.80 1025.07 1025.33 1025.56 1025.75 1025.90 1026.00 1026.06 1026.10 1026.13 1026.18 1026.25 1026.37 1026.52 1026.71 1026.90 1027.07 1027.21 1027.28 1027.27 1027.18 1027.02 1026.80 1026.55 1026.27 1025.98 1025.70 1025.42 1025.13 1024.83 1024.51 1024.16 1023.78 1023.39 1022.98
1022.98 1023.26 1023.50 1023.71 1023.91 1024.11 1024.33 1024.57 1024.84 1025.12 1025.39 1025.65 1025.87 1026.05 1026.19 1026.28 1026.33 1026.37 1026.42 1026.48 1026.57 1026.70 1026.86 1027.02 1027.17 1027.28 1027.35 1027.35 1027.28 1027.15 1026.97 1026.76 1026.52 1026.27 1026.01 1025.74 1025.45 1025.13 1024.78 1024.38 1023.95 1023.49 1023.02
1023.18 1023.48 1023.72 1023.92 1024.08 1024.25 1024.43 1024.64 1024.88 1025.15 1025.43 1025.70 1025.94 1026.14 1026.30 1026.40 1026.46 1026.50 1026.54 1026.58 1026.65 1026.75 1026.88 1027.01 1027.14 1027.25 1027.32 1027.33 1027.29 1027.19 1027.05 1026.88 1026.68 1026.46 1026.23 1025.97 1025.68 1025.35 1024.96 1024.53 1024.06 1023.55 1023.03
1023.23 1023.59 1023.85 1024.04 1024.20 1024.35 1024.51 1024.70 1024.92 1025.18 1025.46 1025.73 1025.98 1026.19 1026.35 1026.45 1026.52 1026.55 1026.56 1026.59 1026.63 1026.70 1026.80 1026.92 1027.04 1027.15 1027.22 1027.26 1027.24 1027.19 1027.08 1026.95 1026.78 1026.59 1026.37 1026.12 1025.82 1025.48 1025.07 1024.62 1024.11 1023.57 1023.02
1023.10 1023.51 1023.81 1024.04 1024.22 1024.37 1024.53 1024.72 1024.94 1025.20 1025.48 1025.75 1026.01 1026.22 1026.38 1026.48 1026.53 1026.54 1026.54 1026.55 1026.57 1026.62 1026.71 1026.82 1026.94 1027.05 1027.14 1027.20 1027.22 1027.19 1027.12 1027.00 1026.86 1026.67 1026.46 1026.20 1025.89 1025.53 1025.12 1024.64 1024.12 1023.57 1023.00
1022.76 1023.23 1023.60 1023.87 1024.08 1024.27 1024.46 1024.67 1024.92 1025.19 1025.48 1025.76 1026.02 1026.24 1026.39 1026.49 1026.54 1026.54 1026.53 1026.52 1026.54 1026.58 1026.66 1026.77 1026.90 1027.03 1027.14 1027.22 1027.25 1027.24 1027.19 1027.08 1026.93 1026.74 1026.51 1026.23 1025.91 1025.53 1025.11 1024.63 1024.10 1023.55 1022.98
Thickness
5720 5719 5718 5718 5718 5718 5717 5717 5716 5715 5714 5714 5713 5713 5713 5713 5713 5714 5715 5716 5718 5718 5718 5718 5719 5719 5719 5720 5720 5720 5720 5720 5720 5720 5721 5721 5722 5722 5722 5723 5723 5724 5725
5717 5716 5715 5714 5714 5714 5713 5713 5712 5711 5710 5709 5708 5708 5708 5708 5709 5710 5710 5711 5712 5713 5714 5714 5714 5714 5715 5715 5715 5715 5715 5715 5715 5716 5716 5717 5717 5717 5717 5717 5718 5719 5720
5713 5713 5711 5710 5710 5710 5709 5708 5708 5707 5706 5705 5703 5703 5704 5704 5705 5705 5706 5706 5707 5707 5708 5709 5710 5710 5710 5711 5711 5710 5710 5711 5711 5711 5711 5711 5711 5711 5712 5712 5713 5713 5714
5710 5709 5708 5707 5706 5706 5705 5704 5703 5701 5700 5700 5699 5699 5700 5700 5700 5701 5701 5701 5701 5702 5703 5704 5704 5705 5705 5706 5706 5706 5706 5706 5706 5707 5706 5706 5706 5707 5707 5707 5708 5708 5708
5707 5705 5704 5703 5702 5702 5701 5701 5698 5697 5695 5695 5695 5694 5695 5696 5696 5696 5696 5696 5696 5697 5698 5698 5699 5700 5700 5701 5701 5702 5702 5702 5702 5702 5702 5701 5701 5701 5701 5702 5702 5702 5703
5703 5702 5701 5700 5699 5698 5696 5696 5694 5693 5692 5692 5692 5690 5690 5691 5692 5691 5692 5692 5692 5692 5693 5694 5694 5694 5695 5695 5696 5696 5697 5697 5697 5697 5697 5696 5696 5696 5696 5696 5696 5696 5697
5700 5699 5698 5697 5696 5694 5693 5692 5691 5689 5687 5688 5686 5683 5683 5685 5686 5686 5687 5687 5687 5688 5689 5689 5689 5689 5689 5690 5691 5692 5692 5692 5692 5692 5691 5691 5691 5691 5691 5690 5690 5690 5691
5698 5697 5696 5694 5693 5692 5690 5689 5688 5685 5685 5685 5682 5677 5673 5675 5679 5681 5682 5682 5683 5684 5685 5685 5685 5685 5685 5685 5686 5687 5687 5687 5687 5686 5686 5686 5685 5685 5685 5685 5684 5684 5684
5696 5695 5694 5693 5691 5690 5688 5687 5686 5684 5681 5682 5682 5677 5671 5667 5669 5673 5676 5677 5678 5679 5680 5680 5680 5680 5680 5680 5681 5681 5682 5681 5681 5681 5680 5680 5680 5679 5679 5679 5678 5678 5677
5694 5694 5693 5691 5690 5689 5687 5686 5686 5684 5682 5679 5680 5679 5677 5673 5668 5665 5668 5671 5673 5673 5674 5675 5675 5675 5675 5676 5676 5676 5676 5676 5675 5675 5675 5674 5674 5674 5673 5673 5672 5671 5671
5693 5692 5691 5690 5689 5687 5686 5685 5685 5684 5682 5680 5678 5676 5674 5672 5670 5665 5661 5664 5667 5668 5670 5670 5670 5670 5670 5671 5671 5670 5670 5670 5670 5669 5669 5668 5668 5668 5667 5666 5666 5665 5664
5690 5691 5690 5688 5687 5686 5685 5684 5683 5682 5680 5679 5677 5676 5674 5671 5668 5665 5661 5659 5660 5662 5665 5665 5665 5665 5665 5666 5665 5665 5665 5664 5664 5663 5663 5662 5662 5661 5660 5660 5659 5658 5657
5687 5688 5688 5687 5686 5685 5684 5683 5681 5680 5679 5677 5675 5674 5673 5672 5670 5667 5663 5658 5657 5658 5659 5660 5661 5661 5661 5661 5660 5660 5660 5659 5658 5657 5657 5656 5655 5654 5654 5653 5652 5651 5650
5688 5688 5687 5685 5684 5683 5682 5681 5679 5678 5676 5675 5674 5673 5671 5670 5670 5668 5664 5659 5654 5652 5654 5654 5656 5657 5657 5657 5656 5656 5655 5654 5653 5652 5651 5650 5649 5648 5647 5646 5645 5644 5643
5688 5687 5685 5683 5682 5681 5680 5679 5677 5675 5674 5673 5671 5671 5669 5668 5668 5667 5665 5662 5656 5649 5648 5650 5651 5653 5653 5652 5652 5651 5650 5649 5648 5646 5645 5644 5643 5641 5640 5639 5638 5637 5636
5687 5685 5683 5682 5681 5679 5678 5676 5674 5673 5671 5670 5669 5668 5667 5666 5665 5664 5662 5660 5657 5653 5646 5647 5647 5649 5649 5649 5648 5647 5646 5645 5643 5641 5640 5639 5637 5635 5634 5632 5631 5630 5629
5686 5684 5682 5680 5679 5677 5676 5674 5672 5671 5669 5667 5666 5665 5664 5663 5661 5660 5659 5657 5654 5651 5646 5644 5644 5645 5645 5644 5643 5642 5641 5639 5638 5636 5635 5633 5631 5630 5628 5626 5625 5623 5622
5684 5683 5681 5679 5677 5675 5674 5672 5669 5668 5666 5664 5663 5662 5660 5660 5658 5657 5655 5653 5651 5649 5645 5641 5640 5640 5640 5639 5638 5636 5635 5634 5632 5630 5629 5627 5625 5624 5622 5620 5618 5616 5615
5682 5681 5679 5676 5675 5673 5671 5670 5668 5666 5664 5662 5661 5659 5658 5657 5655 5653 5652 5650 5648 5647 5643 5639 5636 5635 5634 5633 5632 5631 5629 5628 5626 5624 5622 5621 5619 5617 5615 5613 5611 5609 5607
5680 5678 5676 5674 5673 5671 5669 5667 5666 5664 5661 5660 5659 5658 5656 5655 5653 5651 5649 5647 5645 5642 5639 5635 5632 5630 5628 5627 5625 5623 5621 5620 5619 5618 5616 5614 5612 5610 5608 5606 5604 5602 5600
5678 5676 5674 5671 5670 5668 5667 5665 5663 5661 5658 5657 5656 5655 5654 5653 5652 5650 5648 5644 5642 5638 5634 5630 5627 5625 5623 5621 5619 5617 5615 5613 5612 5611 5609 5607 5605 5603 5601 5599 5597 5595 5593
5674 5672 5670 5668 5666 5666 5665 5663 5661 5658 5656 5654 5652 5651 5651 5650 5649 5647 5646 5643 5640 5636 5631 5627 5623 5621 5619 5617 5615 5613 5609 5606 5604 5604 5601 5599 5598 5595 5594 5592 5590 5587 5585
5671 5668 5667 5665 5664 5663 5663 5661 5659 5656 5653 5651 5649 5647 5646 5645 5644 5642 5641 5639 5637 5634 5632 5627 5622 5619 5617 5615 5612 5608 5604 5601 5599 5598 5595 5591 5590 5587 5587 5585 5582 5580 5577
5668 5665 5663 5662 5660 5660 5660 5658 5656 5652 5650 5648 5645 5644 5641 5640 5639 5637 5635 5632 5630 5628 5626 5624 5621 5618 5616 5613 5609 5605 5601 5596 5594 5592 5589 5584 5582 5580 5579 5577 5575 5572 5569
5664 5662 5660 5658 5656 5655 5656 5654 5652 5648 5645 5642 5641 5639 5637 5635 5635 5633 5629 5626 5623 5621 5620 5618 5616 5613 5610 5606 5603 5598 5593 5589 5585 5584 5581 5577 5575 5572 5571 5569 5567 5564 5562
5660 5658 5656 5654 5653 5651 5651 5650 5647 5643 5639 5637 5635 5634 5633 5631 5630 5628 5624 5620 5616 5615 5613 5611 5608 5605 5602 5599 5596 5592 5587 5582 5578 5576 5574 5570 5566 5563 5561 5561 5559 5557 5554